Fairmont, MN

1:23 PM CDT on August 20, 2017 (GMT -0500)
Fairmont Municipal

Weather History for KFRM - September, 2014

Change the Weather History Date:

Wednesday, September 3, 2014

  Actual Average Record
Temperature  
Mean Temperature 70 °F -  
Max Temperature 82 °F 78 °F 92 °F (1978)
Min Temperature 57 °F 56 °F 35 °F (1974)
Cooling Degree Days 4    
Growing Degree Days 20 (Base 50)    
Moisture  
Dew Point 60 °F    
Average Humidity 71    
Maximum Humidity 88    
Minimum Humidity 54    
Precipitation  
Precipitation 0.00 in - - ()
Sea Level Pressure  
Sea Level Pressure 29.81 in    
Wind  
Wind Speed 10 mph (South)    
Max Wind Speed 25 mph    
Max Gust Speed 32 mph    
Visibility 10 miles    
Events      
Averages and records for this station are not official NWS values.
T = Trace of Precipitation, MM = Missing Value Source: NWS Daily Summary

Daily Weather History Graph

Daily Weather History Graph

Search for Another Location

Airport or City:

Trip Planner

Search our weather history database for the weather conditions in past years. The results will help you decide how hot, cold, wet, or windy it might be!

Date:

Astronomy

Sep. 03, 2014 Rise Set
Actual Time 6:43 AM CDT 7:49 PM CDT
Civil Twilight 6:14 AM CDT 8:18 PM CDT
Nautical Twilight 5:38 AM CDT 8:53 PM CDT
Astronomical Twilight 5:01 AM CDT 9:30 PM CDT
Moon 3:38 PM CDT (9/3) 12:32 AM CDT (9/3)
Length of Visible Light 14h 04m
Length of Day
13h 05m
Waxing Gibbous, 64% of the Moon is Illuminated
Sep 3
Waxing Gibbous
Sep 8
Full
Sep 15
Last Quarter
Sep 24
New
Oct 1
First Quarter

Hourly Weather History & Observations

Time (CDT) Temp. Heat Index Dew Point Humidity Pressure Visibility Wind Dir Wind Speed Gust Speed Precip Events Conditions
12:15 AM 59.0 °F - 53.6 °F 82% 29.93 in 10.0 mi SSW 5.8 mph - N/A   Clear
12:35 AM 59.0 °F - 53.6 °F 82% 29.93 in 10.0 mi SSW 6.9 mph - N/A   Clear
12:55 AM 59.0 °F - 53.6 °F 82% 29.92 in 10.0 mi SSW 5.8 mph - N/A   Clear
1:15 AM 59.0 °F - 53.6 °F 82% 29.92 in 10.0 mi South 6.9 mph - N/A   Clear
1:35 AM 57.2 °F - 53.6 °F 88% 29.92 in 10.0 mi South 6.9 mph - N/A   Clear
1:55 AM 57.2 °F - 53.6 °F 88% 29.92 in 10.0 mi South 5.8 mph - N/A   Clear
2:15 AM 57.2 °F - 51.8 °F 82% 29.91 in 10.0 mi SSE 6.9 mph - N/A   Clear
2:35 AM 57.2 °F - 51.8 °F 82% 29.91 in 10.0 mi South 6.9 mph - N/A   Clear
2:55 AM 57.2 °F - 51.8 °F 82% 29.91 in 10.0 mi South 6.9 mph - N/A   Clear
3:15 AM 57.2 °F - 51.8 °F 82% 29.91 in 10.0 mi South 6.9 mph - N/A   Clear
3:35 AM 57.2 °F - 51.8 °F 82% 29.90 in 10.0 mi South 6.9 mph - N/A   Clear
3:55 AM 57.2 °F - 51.8 °F 82% 29.89 in 10.0 mi South 6.9 mph - N/A   Clear
4:15 AM 57.2 °F - 51.8 °F 82% 29.89 in 10.0 mi SSE 4.6 mph - N/A   Scattered Clouds
4:35 AM 59.0 °F - 53.6 °F 82% 29.88 in 10.0 mi South 8.1 mph - N/A   Overcast
4:55 AM 60.8 °F - 53.6 °F 77% 29.88 in 10.0 mi South 10.4 mph - N/A   Overcast
5:15 AM 60.8 °F - 53.6 °F 77% 29.89 in 10.0 mi South 9.2 mph - N/A   Scattered Clouds
5:35 AM 60.8 °F - 55.4 °F 82% 29.90 in 10.0 mi South 11.5 mph - N/A   Mostly Cloudy
5:55 AM 60.8 °F - 53.6 °F 77% 29.90 in 10.0 mi South 10.4 mph - N/A   Mostly Cloudy
6:15 AM 60.8 °F - 55.4 °F 82% 29.90 in 10.0 mi South 5.8 mph - N/A   Mostly Cloudy
6:35 AM 60.8 °F - 55.4 °F 82% 29.90 in 10.0 mi South 3.5 mph - N/A   Overcast
6:55 AM 60.8 °F - 53.6 °F 77% 29.89 in 10.0 mi ESE 4.6 mph - N/A   Mostly Cloudy
7:15 AM 59.0 °F - 53.6 °F 82% 29.88 in 10.0 mi ESE 5.8 mph - N/A   Partly Cloudy
7:35 AM 59.0 °F - 53.6 °F 82% 29.88 in 10.0 mi East 6.9 mph - N/A   Clear
7:55 AM 60.8 °F - 55.4 °F 82% 29.88 in 10.0 mi ESE 6.9 mph - N/A   Clear
8:15 AM 62.6 °F - 55.4 °F 77% 29.87 in 10.0 mi ESE 5.8 mph - N/A   Clear
8:35 AM 64.4 °F - 57.2 °F 77% 29.87 in 10.0 mi SE 6.9 mph - N/A   Clear
8:55 AM 66.2 °F - 57.2 °F 73% 29.86 in 10.0 mi SSE 9.2 mph - N/A   Clear
9:15 AM 68.0 °F - 60.8 °F 78% 29.85 in 10.0 mi SSE 12.7 mph - N/A   Clear
9:35 AM - - - N/A% - 10.0 mi North - - N/A   Clear
9:55 AM - - - N/A% - - North - - N/A   Unknown
10:15 AM 73.4 °F - 62.6 °F 69% 29.83 in 10.0 mi South 17.3 mph - N/A   Unknown
10:35 AM 73.4 °F - 62.6 °F 69% 29.83 in 10.0 mi South 20.7 mph 26.5 mph N/A   Partly Cloudy
10:55 AM 73.4 °F - 62.6 °F 69% 29.82 in 10.0 mi SSE 18.4 mph 24.2 mph N/A   Partly Cloudy
11:15 AM 75.2 °F - 64.4 °F 69% 29.82 in 10.0 mi South 17.3 mph 24.2 mph N/A   Partly Cloudy
11:35 AM 77.0 °F - 64.4 °F 65% 29.80 in 10.0 mi South 21.9 mph 29.9 mph N/A   Partly Cloudy
11:55 AM 78.8 °F - 64.4 °F 61% 29.78 in 10.0 mi SSE 25.3 mph 31.1 mph N/A   Partly Cloudy
12:15 PM 78.8 °F - 64.4 °F 61% 29.77 in 10.0 mi South 24.2 mph 29.9 mph N/A   Partly Cloudy
12:35 PM 80.6 °F 82.7 °F 66.2 °F 61% 29.77 in 10.0 mi South 25.3 mph 32.2 mph N/A   Scattered Clouds
12:55 PM 80.6 °F 81.8 °F 62.6 °F 54% 29.78 in 10.0 mi South 17.3 mph 23.0 mph N/A   Overcast
1:15 PM 78.8 °F - 62.6 °F 57% 29.78 in 10.0 mi South 18.4 mph 25.3 mph N/A   Overcast
1:35 PM 78.8 °F - 62.6 °F 57% 29.78 in 10.0 mi South 16.1 mph 25.3 mph N/A   Overcast
1:55 PM 78.8 °F - 62.6 °F 57% 29.79 in 10.0 mi South 10.4 mph 18.4 mph N/A   Overcast
2:15 PM 78.8 °F - 62.6 °F 57% 29.79 in 10.0 mi South 12.7 mph 18.4 mph N/A   Overcast
2:35 PM 78.8 °F - 62.6 °F 57% 29.76 in 10.0 mi SSE 12.7 mph - N/A   Overcast
2:55 PM 80.6 °F 82.3 °F 64.4 °F 58% 29.75 in 10.0 mi SSE 12.7 mph 18.4 mph N/A   Overcast
3:15 PM 80.6 °F 82.7 °F 66.2 °F 61% 29.73 in 10.0 mi South 12.7 mph 19.6 mph N/A   Overcast
3:35 PM 80.6 °F 82.7 °F 66.2 °F 61% 29.72 in 10.0 mi South 17.3 mph - N/A   Overcast
3:55 PM 82.4 °F 85.4 °F 68.0 °F 62% 29.72 in 10.0 mi South 19.6 mph 26.5 mph N/A   Overcast
4:15 PM 80.6 °F 83.2 °F 68.0 °F 65% 29.72 in 10.0 mi South 19.6 mph 26.5 mph N/A   Overcast
4:35 PM 82.4 °F 86.3 °F 69.8 °F 66% 29.71 in 10.0 mi South 20.7 mph 26.5 mph N/A   Overcast
4:55 PM 80.6 °F 83.2 °F 68.0 °F 65% 29.72 in 10.0 mi South 17.3 mph 20.7 mph N/A   Overcast
5:15 PM 80.6 °F 82.7 °F 66.2 °F 61% 29.72 in 10.0 mi SSW 15.0 mph 21.9 mph N/A   Overcast
5:35 PM 80.6 °F 83.2 °F 68.0 °F 65% 29.71 in 10.0 mi SSW 11.5 mph - N/A   Overcast
5:55 PM 80.6 °F 83.2 °F 68.0 °F 65% 29.70 in 10.0 mi South 11.5 mph 18.4 mph N/A   Scattered Clouds
6:15 PM 80.6 °F 82.7 °F 66.2 °F 61% 29.70 in 10.0 mi South 17.3 mph 24.2 mph N/A   Partly Cloudy
6:35 PM 80.6 °F 82.3 °F 64.4 °F 58% 29.71 in 10.0 mi South 17.3 mph 26.5 mph N/A   Scattered Clouds
6:55 PM 80.6 °F 82.3 °F 64.4 °F 58% 29.70 in 10.0 mi South 18.4 mph 24.2 mph N/A   Partly Cloudy
7:15 PM 78.8 °F - 64.4 °F 61% 29.69 in 10.0 mi South 13.8 mph 20.7 mph N/A   Clear
7:35 PM 78.8 °F - 64.4 °F 61% 29.69 in 10.0 mi South 16.1 mph 24.2 mph N/A   Clear
7:55 PM 77.0 °F - 64.4 °F 65% 29.70 in 10.0 mi South 13.8 mph - N/A   Clear
8:15 PM 75.2 °F - 64.4 °F 69% 29.71 in 10.0 mi South 11.5 mph - N/A   Clear
8:35 PM 75.2 °F - 64.4 °F 69% 29.71 in 10.0 mi South 11.5 mph 18.4 mph N/A   Clear
8:55 PM 75.2 °F - 64.4 °F 69% 29.72 in 10.0 mi South 11.5 mph 17.3 mph N/A   Clear
9:15 PM 73.4 °F - 64.4 °F 73% 29.72 in 10.0 mi South 15.0 mph 19.6 mph N/A   Clear
9:35 PM 73.4 °F - 64.4 °F 73% 29.72 in 10.0 mi South 11.5 mph 18.4 mph N/A   Clear
9:55 PM 73.4 °F - 64.4 °F 73% 29.73 in 10.0 mi South 10.4 mph - N/A   Clear
10:15 PM 71.6 °F - 60.8 °F 69% 29.73 in 10.0 mi South 9.2 mph - N/A   Clear
10:55 PM 71.6 °F - 60.8 °F 69% 29.74 in 10.0 mi SSE 5.8 mph - N/A   Clear
11:15 PM 69.8 °F - 60.8 °F 73% 29.73 in 10.0 mi SSE 8.1 mph - N/A   Clear
11:35 PM 69.8 °F - 60.8 °F 73% 29.73 in 10.0 mi SE 6.9 mph - N/A   Clear
11:55 PM 69.8 °F - 60.8 °F 73% 29.73 in 10.0 mi SE 5.8 mph - N/A   Clear